Theta_e
342 345 343 338 338 342 340 339 337 332 329 328 327 326 325 323 321 320 319 322 321 323 326 327 328 329 329 327 328 328 328 333 333 333 333 332 332 332 332 332 332 332 331
332 344 343 340 336 338 340 339 337 332 329 328 327 326 325 321 319 318 316 321 323 329 328 327 325 328 329 328 328 328 330 332 330 331 331 331 332 332 332 331 331 331 331
332 343 343 341 336 336 337 337 336 333 330 329 328 327 324 320 319 323 317 319 330 327 324 322 315 316 320 322 325 326 326 323 322 325 329 329 330 330 329 329 329 329 329
333 332 344 342 338 336 336 336 336 334 331 329 328 327 323 321 322 326 322 322 326 326 322 314 312 312 312 312 314 316 317 318 325 327 327 327 326 324 324 325 326 326 325
331 338 341 343 340 336 335 334 326 328 334 329 329 327 321 321 322 324 325 327 325 325 316 317 313 312 312 314 314 317 319 325 327 327 327 325 325 321 319 320 320 317 317
333 335 337 337 340 337 335 330 325 324 336 329 330 327 321 321 322 327 326 329 324 322 312 312 310 310 310 311 311 316 325 326 327 326 325 324 323 320 314 312 311 309 309
327 334 338 333 338 337 335 334 333 333 335 331 330 325 321 320 323 329 329 327 322 317 311 310 308 309 309 309 309 313 322 323 324 323 323 322 319 316 310 307 305 305 305
321 326 335 329 334 335 334 333 326 322 336 334 331 325 322 320 323 327 328 323 319 313 311 309 307 306 307 307 309 316 321 321 322 323 322 321 314 310 306 304 304 304 303
322 322 328 327 333 330 332 328 323 323 328 335 331 323 323 320 324 328 327 323 316 313 311 309 306 306 306 306 307 314 320 321 322 322 321 319 309 306 304 303 304 304 304
324 326 326 330 331 331 330 326 327 326 323 333 330 325 322 321 324 328 328 323 318 315 313 309 307 307 307 307 307 314 320 321 321 320 320 314 307 306 305 305 305 305 306
329 332 329 332 333 327 328 327 326 327 323 326 331 325 322 327 324 328 326 323 319 317 314 312 311 309 307 307 307 316 320 320 320 320 319 309 309 309 306 306 306 306 306
334 330 330 330 327 326 327 327 328 324 325 325 331 326 326 329 328 329 324 322 319 318 317 315 314 310 308 306 310 319 320 320 320 319 312 311 309 308 306 306 306 306 306
333 330 331 329 330 326 328 329 326 324 326 327 330 326 330 328 327 329 321 322 320 319 318 317 314 313 316 315 316 319 320 321 320 319 310 309 308 308 307 306 307 307 306
331 331 330 329 330 329 327 329 328 324 325 329 331 328 327 328 327 327 321 322 321 320 319 317 316 320 319 317 319 319 319 319 320 319 310 309 308 308 307 307 307 307 306
329 329 330 327 329 329 329 326 329 329 326 331 330 327 325 326 328 324 325 325 323 323 322 320 322 321 320 318 318 319 319 319 320 319 311 308 308 307 309 309 308 307 306
328 329 327 327 326 328 328 325 327 327 327 327 324 324 325 326 325 326 326 325 324 324 323 322 323 322 319 318 318 318 318 319 319 319 317 308 309 309 309 310 309 307 306
327 325 327 327 327 328 326 326 326 326 328 327 326 324 322 326 323 325 326 325 325 324 324 324 323 320 318 317 318 318 318 318 319 320 319 318 311 309 310 309 309 308 307
327 325 327 327 327 327 327 327 325 324 326 327 325 323 323 324 323 323 325 326 326 325 324 323 321 319 318 318 317 317 318 318 318 319 319 319 317 315 310 310 309 308 307
326 325 326 327 327 325 325 326 325 325 325 327 327 324 324 323 320 322 322 322 323 323 322 321 319 318 318 317 317 317 317 318 318 317 318 319 319 317 316 313 309 309 308
324 325 326 326 325 324 325 326 327 326 326 326 326 324 319 315 316 320 320 319 318 317 318 316 317 318 318 317 316 316 315 315 316 317 317 317 317 317 318 318 317 313 309
324 325 325 326 324 324 325 326 326 325 325 326 324 318 317 317 319 318 315 313 313 314 315 317 318 317 317 316 314 314 315 315 315 314 313 315 316 317 318 318 319 317 315
325 324 325 324 324 325 326 325 325 326 325 324 320 317 315 316 316 313 312 313 313 316 318 319 319 320 319 319 318 319 319 317 317 318 316 315 314 315 316 318 317 318 316
324 324 324 325 324 324 326 326 325 324 322 318 317 314 313 314 314 314 316 316 319 319 319 319 319 320 319 320 320 321 322 322 321 319 318 317 316 316 315 314 315 315 316
325 323 324 324 323 324 324 325 325 324 320 316 314 314 314 315 316 317 318 318 317 317 320 318 318 319 321 322 321 320 321 322 322 321 320 319 318 316 317 318 315 314 315
325 326 323 324 324 323 323 324 324 323 320 318 318 316 315 316 314 316 315 318 318 317 318 316 318 318 321 319 321 322 321 321 321 322 321 320 320 318 317 318 318 317 315
325 325 325 322 323 322 322 322 322 323 320 318 318 316 316 316 315 314 318 318 319 319 317 317 318 318 317 320 321 321 321 321 321 320 320 320 320 320 319 316 316 318 318
Wind_Speed
6 8 11 19 21 20 25 25 25 25 26 26 26 24 24 24 23 22 20 18 18 17 18 18 18 19 19 21 20 19 19 21 22 23 23 23 24 24 23 23 22 23 22
4 5 13 22 21 22 24 24 25 25 28 28 28 27 26 24 23 23 21 19 18 19 18 18 18 18 19 18 19 20 21 21 20 20 23 24 23 22 21 19 21 22 21
6 3 15 19 26 24 25 23 24 25 28 29 29 29 28 25 24 23 22 21 21 20 17 16 16 17 20 18 19 19 19 18 21 21 19 15 17 18 16 15 17 16 16
6 7 10 17 29 27 22 25 24 25 30 31 31 30 29 26 25 25 24 25 21 18 16 15 16 19 19 18 17 19 22 24 27 21 16 17 15 13 12 13 14 12 11
7 5 9 19 23 27 23 24 18 32 34 35 34 32 30 27 26 26 26 23 19 16 16 17 18 19 19 20 21 25 27 27 25 15 16 16 16 14 13 12 11 11 10
7 7 13 20 22 27 28 31 27 34 35 39 38 34 32 29 28 29 25 23 17 16 16 18 18 19 20 20 21 27 31 24 19 12 14 15 14 17 17 15 14 14 14
12 9 16 18 21 23 29 32 20 34 40 41 40 37 33 30 28 27 24 21 21 19 19 19 20 20 19 20 24 27 28 23 16 15 14 15 14 16 15 16 16 16 16
16 13 15 15 21 24 30 32 42 51 45 39 42 39 35 31 29 28 25 23 21 21 21 20 20 20 20 21 24 27 28 22 16 15 15 16 17 16 17 17 18 17 17
14 18 16 16 17 19 22 26 25 39 29 31 43 41 37 31 30 28 26 24 23 23 23 22 22 22 22 22 24 24 27 22 15 15 15 16 18 19 19 18 18 18 17
11 14 16 15 15 18 19 24 28 32 51 51 44 43 38 34 30 29 28 23 25 25 24 24 23 23 23 23 23 24 27 20 15 15 14 17 20 20 19 18 17 16 15
12 9 12 12 14 14 18 17 22 29 54 46 46 44 39 36 33 30 27 24 27 27 26 25 24 23 22 23 23 24 18 12 14 13 14 19 18 18 17 16 15 14 13
12 15 11 10 9 10 13 13 14 22 44 30 49 44 38 36 35 29 27 27 30 28 27 25 22 22 22 24 24 21 14 12 12 13 16 18 17 16 15 14 13 12 11
8 14 11 8 7 6 8 12 13 21 32 43 44 43 36 38 35 31 31 32 31 28 27 25 24 20 16 16 16 9 12 12 12 12 15 16 15 15 13 12 11 10 9
8 13 13 13 13 10 10 8 13 22 15 35 46 43 37 37 39 31 37 36 34 28 29 26 23 15 15 14 10 12 12 11 11 11 15 13 12 11 11 10 8 7 7
8 11 15 11 10 11 12 14 15 15 24 35 43 41 37 37 35 34 32 29 28 24 24 23 18 16 15 13 12 12 12 12 12 11 13 12 12 10 9 8 6 5 5
7 8 14 10 8 10 12 14 14 18 20 29 35 34 34 36 36 31 30 28 27 24 22 20 18 17 15 14 13 12 11 11 11 11 11 12 11 9 8 7 5 4 3
8 9 7 6 7 10 13 14 16 17 30 34 36 40 39 35 33 27 30 28 27 25 23 20 19 17 14 13 12 12 11 12 12 11 10 10 10 10 10 7 6 5 5
5 7 9 4 6 10 16 18 22 21 22 33 43 45 41 39 38 32 26 26 25 25 23 20 19 16 15 14 13 12 11 10 11 11 10 10 10 11 10 9 9 8 7
6 6 7 4 4 7 11 14 21 26 33 39 51 51 45 38 37 29 26 26 29 25 23 21 22 18 16 14 12 11 11 10 11 10 12 14 13 12 11 11 9 11 11
6 7 7 5 4 4 7 7 10 19 29 54 51 52 44 41 39 31 31 34 33 30 28 24 20 18 15 14 11 12 11 10 11 12 14 14 15 15 15 14 17 17 17
9 11 8 8 9 6 11 23 29 38 48 50 51 47 44 41 42 34 30 32 31 28 25 23 21 18 14 15 13 12 10 13 14 14 15 16 16 17 17 18 18 16 18
13 14 13 9 12 15 19 26 38 37 37 47 46 47 43 36 32 32 29 30 28 25 22 18 17 13 14 15 12 9 8 10 15 19 17 17 18 18 19 20 20 20 18
15 15 16 13 13 17 21 22 26 27 33 40 42 46 41 39 34 32 28 25 22 22 18 18 19 17 17 15 15 9 7 10 10 14 15 20 20 22 21 22 26 24 25
16 16 18 17 16 18 20 20 23 28 38 42 46 45 42 41 40 35 28 22 23 23 23 21 21 21 15 13 11 20 19 11 8 6 10 16 19 24 25 25 28 29 30
18 18 16 20 19 21 22 25 27 31 41 45 45 46 46 43 47 34 34 26 30 28 26 23 25 25 20 19 17 13 13 15 18 17 20 19 19 20 24 27 28 32 32
19 19 18 19 23 22 20 24 25 32 40 42 46 47 44 42 41 39 34 32 28 27 29 28 27 26 24 21 21 20 20 17 16 20 21 24 24 24 23 24 28 26 29
Wind_Direction
16 274 255 210 201 194 194 196 194 191 185 181 175 172 171 169 165 158 153 152 150 147 139 130 128 133 139 144 150 151 139 133 128 123 119 116 115 113 108 106 106 106 107
347 244 260 221 210 205 202 200 201 200 192 187 180 175 175 170 168 162 155 154 148 151 147 145 143 148 146 145 145 144 148 146 137 134 131 127 123 121 120 121 120 119 118
329 258 254 233 215 205 206 207 208 207 201 193 184 179 175 173 169 164 155 154 154 148 146 149 155 158 152 148 147 143 137 118 106 98 93 106 125 135 136 127 127 130 130
313 280 225 250 221 215 210 212 210 213 208 201 190 184 178 175 169 163 159 154 158 148 146 147 146 144 147 146 138 127 126 121 109 107 121 122 111 142 145 138 132 130 128
307 276 227 239 235 221 216 207 227 244 211 203 193 186 179 177 172 167 163 161 155 149 145 147 145 144 139 136 131 126 119 106 111 114 114 123 115 130 144 151 149 148 146
292 269 260 239 236 229 209 219 239 237 209 203 194 186 183 179 177 171 169 164 151 154 154 155 151 144 142 137 129 126 114 109 111 125 121 110 118 126 137 141 137 138 132
278 258 251 244 240 233 218 227 224 223 215 199 194 187 185 183 174 174 169 164 160 155 154 151 147 146 144 139 136 132 124 116 122 120 121 123 122 127 136 131 126 124 123
287 262 247 248 227 231 237 230 250 275 204 193 193 188 185 184 177 177 172 165 160 153 149 145 145 144 144 143 139 133 121 116 126 127 123 126 126 125 124 125 121 115 114
285 276 262 254 233 223 231 245 250 230 223 202 193 187 186 182 180 174 171 165 156 152 146 142 142 143 143 143 141 137 124 122 129 131 128 128 130 128 124 119 117 118 118
282 275 258 248 238 230 227 245 254 238 242 212 190 185 183 180 176 176 171 164 157 152 145 141 143 144 144 144 141 138 124 120 131 124 133 142 134 130 126 125 123 119 112
298 262 261 235 231 237 238 244 252 233 233 224 184 183 180 173 176 172 169 163 159 154 148 146 146 143 144 140 134 124 105 131 127 137 145 139 134 129 125 123 118 113 108
286 295 257 237 219 239 236 246 251 217 210 218 186 178 170 171 175 168 166 163 161 156 154 149 146 142 144 140 134 120 111 139 136 143 148 141 135 132 125 122 119 115 111
283 287 256 219 209 229 238 238 203 197 238 209 182 174 173 169 161 176 162 164 164 161 153 150 149 140 150 146 138 119 154 138 141 146 149 142 140 136 131 125 122 120 117
269 280 271 248 229 233 226 210 199 174 236 181 174 162 173 166 166 172 164 166 166 160 157 156 145 154 150 159 139 155 145 147 147 154 151 148 145 138 137 138 134 124 113
260 254 256 259 238 232 233 205 187 191 194 161 159 165 171 166 166 169 163 166 163 167 158 156 150 158 158 156 152 146 152 154 154 158 158 158 159 154 152 151 144 131 110
251 256 238 257 252 237 200 191 184 202 199 194 168 170 171 167 169 160 164 167 165 169 165 161 162 160 159 157 154 156 159 161 155 158 168 169 171 169 170 172 164 147 132
247 251 221 251 236 230 209 212 203 200 194 196 199 190 175 172 166 169 167 168 167 168 167 166 161 158 161 157 161 164 167 167 165 158 169 183 183 182 187 194 192 190 187
232 238 209 235 233 238 235 237 228 219 207 212 213 186 175 172 166 168 171 171 167 168 167 168 160 160 168 165 170 176 175 173 172 173 172 190 196 203 206 208 207 214 220
210 241 193 187 207 233 248 259 243 226 215 191 190 181 175 175 175 165 170 173 171 166 165 166 163 166 167 174 176 179 184 183 187 192 196 194 207 205 239 234 231 233 233
207 188 174 162 171 236 270 255 214 186 170 173 177 174 174 173 183 171 179 180 176 169 171 163 156 164 175 174 176 189 190 194 203 206 211 215 213 217 214 243 262 253 240
183 183 182 176 169 180 188 157 153 138 160 174 177 170 170 180 188 183 184 175 176 174 172 171 168 161 177 181 175 195 205 213 217 222 227 221 225 226 224 217 239 258 255
182 180 174 163 160 166 165 154 146 157 159 167 164 167 174 183 189 194 185 179 174 172 175 178 183 183 204 205 196 194 215 232 249 241 226 233 228 228 233 231 230 229 235
186 181 181 183 168 170 177 173 167 159 156 159 164 164 170 176 188 193 184 180 181 183 180 195 203 208 215 222 209 208 231 243 246 244 249 229 233 241 234 239 241 237 230
184 183 183 185 176 183 180 180 179 175 162 165 167 169 176 190 194 193 181 198 194 196 209 201 223 221 203 222 240 228 230 247 274 259 238 259 247 239 253 252 248 244 246
185 180 182 189 188 187 191 184 185 180 175 175 180 183 186 191 202 214 200 213 212 208 212 210 229 229 225 225 232 243 254 257 258 262 272 265 247 242 252 259 255 254 258
184 179 180 189 191 188 187 188 195 190 182 186 185 186 192 193 195 193 203 214 211 216 217 219 228 236 239 235 236 240 242 249 255 264 262 266 268 267 260 253 256 260 260